SCP
0 0 0 0 0 0 0 0 0 0 0 0 1 1 1 1 1 2 2 2 2 2 2 2 1 1 2 3 3 2 2 2 3 3 3 3 4 4 4 4 3 3 3 2
0 0 0 0 0 0 0 0 0 1 0 1 1 1 1 1 1 2 2 2 2 2 2 2 1 1 2 2 2 2 2 2 3 3 3 3 3 3 4 4 4 4 3 3
0 0 0 0 0 0 0 0 0 0 0 1 1 2 2 2 1 2 2 2 2 2 2 2 2 2 2 2 2 2 2 2 2 2 2 2 2 2 3 4 5 5 4 3
0 0 0 0 0 0 0 0 0 0 0 1 1 2 2 2 2 2 2 2 2 3 3 2 2 2 2 2 3 3 4 3 3 2 2 2 2 2 2 3 4 4 4 4
0 0 0 0 0 0 0 0 0 0 0 0 1 1 2 3 2 2 2 2 2 3 3 3 3 3 3 4 5 6 6 6 5 3 3 2 2 2 2 3 3 3 3 4
0 0 0 0 0 0 0 0 1 1 1 0 0 1 2 2 2 2 2 2 2 3 3 3 3 4 4 5 6 8 9 9 7 5 3 3 3 3 3 4 4 3 3 4
0 0 0 0 0 0 0 1 1 1 1 0 1 1 2 2 2 2 3 3 3 3 3 3 4 4 4 5 6 8 11 12 9 5 4 4 4 4 4 4 4 3 4 5
0 0 0 0 0 0 0 1 1 1 0 0 1 1 2 2 2 3 4 4 3 3 3 4 4 4 4 5 6 7 11 11 9 6 5 5 5 5 5 5 4 4 5 5
0 0 0 0 0 0 1 1 1 0 0 0 1 1 2 2 2 3 4 4 3 2 3 5 5 6 6 6 6 8 11 11 8 6 5 6 6 6 6 5 4 5 6 6
0 0 0 0 0 0 1 1 1 1 1 0 1 1 2 2 3 3 3 3 3 3 5 7 7 8 7 7 7 9 11 10 8 6 6 6 6 6 6 5 4 5 6 6
0 0 0 0 0 0 0 0 1 1 1 1 1 1 2 2 3 4 4 4 5 5 7 8 8 7 7 7 6 7 8 8 7 7 7 6 5 5 5 4 4 5 5 5
0 0 0 0 0 0 0 0 0 1 1 1 1 1 2 2 3 4 6 7 7 7 6 6 6 6 6 5 5 5 5 6 7 8 8 6 6 6 5 5 5 5 5 4
0 0 0 0 0 0 0 0 0 0 1 1 1 1 2 3 3 5 7 9 7 6 5 6 6 6 6 6 5 5 5 6 7 8 8 7 6 7 7 6 6 6 5 5
0 0 0 0 0 0 0 0 0 0 1 1 1 2 3 4 5 6 9 8 6 5 6 7 9 9 8 7 7 6 6 6 7 8 8 8 8 8 7 7 7 6 5 5
0 0 0 0 0 0 0 0 0 0 1 1 1 2 4 5 6 7 8 7 5 5 6 8 11 11 10 9 10 10 9 8 8 9 9 9 9 8 7 6 6 6 6 5
0 1 1 0 0 0 0 0 0 1 1 1 2 4 6 7 8 8 9 8 6 6 7 8 10 12 12 11 12 13 13 12 11 11 10 10 9 8 7 6 6 7 6 6
1 1 1 0 0 0 0 0 1 1 2 2 5 9 11 11 10 10 9 9 8 8 9 10 11 13 13 12 11 12 13 13 13 12 11 9 8 8 8 7 7 7 7 6
1 1 1 0 0 0 0 1 1 2 3 5 9 12 13 13 13 11 10 9 9 10 12 14 15 15 14 11 9 9 11 12 12 11 10 9 8 8 9 9 8 8 7 6
1 1 1 1 0 0 1 1 1 3 5 7 11 13 13 12 12 10 9 10 10 11 13 15 16 15 13 11 9 9 11 12 11 10 10 10 10 9 9 10 9 9 8 7
1 1 1 1 1 1 2 1 1 3 6 8 12 14 12 10 9 9 9 10 12 14 15 14 14 12 11 11 11 10 11 11 11 10 11 12 12 11 10 10 10 10 9 8
0 1 1 1 1 3 3 3 2 4 6 9 12 13 10 8 7 8 9 10 13 16 16 13 11 11 11 12 12 11 10 10 10 9 10 11 12 11 11 11 11 10 9 8
1 1 1 1 2 4 5 5 4 6 8 12 13 11 8 6 7 9 10 11 11 12 12 10 10 11 12 13 12 11 9 9 10 10 11 11 12 12 11 12 12 11 10 9
3 3 2 2 4 7 8 8 8 10 12 13 13 10 8 8 9 10 10 10 9 8 8 9 9 11 13 14 13 11 9 10 11 12 12 13 13 13 13 13 13 13 12 11
4 3 3 5 9 11 12 12 12 12 13 12 11 9 8 9 9 10 10 9 8 8 8 8 8 10 13 15 14 12 10 12 14 14 13 13 13 14 13 13 13 13 12 11
3 3 4 7 12 15 15 15 13 12 10 10 10 9 8 9 11 11 11 9 8 8 8 8 8 10 12 14 14 12 11 13 16 16 15 14 13 13 13 12 10 9 9 7
3 3 4 9 14 16 16 15 12 10 8 8 9 10 8 10 14 15 12 10 9 9 9 9 9 10 12 13 13 12 11 13 16 18 17 15 13 13 13 11 8 5 4 4
Wind_Speed
13 13 12 12 11 9 7 5 4 5 5 5 7 12 15 13 12 13 13 12 11 11 11 10 9 9 9 8 6 5 4 3 2 1 1 1 0 1 1 2 3 3 1 1
14 16 15 13 10 10 9 7 6 6 7 4 7 10 13 14 14 14 13 13 13 12 12 11 9 8 8 8 6 5 4 4 3 2 1 1 0 0 1 1 2 2 1 0
18 13 13 13 12 11 10 9 6 5 8 8 7 7 12 13 12 13 13 13 13 13 13 12 10 9 9 9 7 6 5 5 4 3 2 2 1 0 1 2 2 2 1 1
16 14 12 13 13 12 10 10 8 7 7 6 9 5 10 12 12 13 13 13 13 14 13 12 11 9 9 9 8 6 6 5 4 3 2 3 2 1 1 1 2 2 1 1
15 15 14 14 13 12 11 9 9 10 9 7 8 6 8 11 10 10 12 12 13 14 14 13 12 10 9 9 9 8 7 6 4 3 2 2 1 1 1 1 2 1 1 2
16 14 13 13 12 12 11 10 9 9 9 11 10 8 7 9 13 14 15 14 13 14 14 13 12 10 9 9 8 9 8 6 5 4 3 2 1 1 0 1 1 1 1 1
16 15 13 11 13 13 12 10 7 7 9 10 10 7 6 12 13 13 14 14 14 13 14 13 13 11 9 9 8 8 9 7 6 5 4 3 2 1 1 1 1 1 1 1
15 16 16 14 14 12 13 14 10 8 10 8 8 7 5 10 11 10 10 12 14 14 14 14 13 12 11 10 9 9 9 8 7 6 4 3 3 2 1 1 0 0 0 1
11 13 14 15 13 14 14 14 14 12 13 10 5 3 5 9 10 11 11 12 13 13 14 13 13 12 11 10 10 9 10 8 7 6 5 4 3 2 1 2 1 0 1 1
11 10 11 12 12 15 16 13 10 10 9 11 8 7 7 10 11 12 11 11 11 11 13 14 13 13 11 9 9 9 9 8 7 6 5 5 4 3 2 1 1 1 1 1
13 11 11 13 14 15 15 16 12 10 9 10 7 4 4 9 9 10 11 10 11 10 11 11 11 11 11 10 10 9 9 9 7 6 5 4 4 4 2 1 1 1 1 1
11 10 11 13 12 14 14 15 14 10 8 8 7 2 4 7 8 8 10 10 9 8 8 10 11 11 10 9 9 9 9 8 7 6 5 4 4 3 3 2 1 1 1 1
7 8 10 12 13 15 15 15 15 13 9 9 10 4 5 7 7 8 9 10 9 7 8 9 9 10 9 8 7 8 8 8 8 7 6 5 4 4 3 3 2 2 2 1
7 10 12 14 9 11 14 16 16 14 10 10 9 5 5 7 8 8 7 7 9 8 8 9 8 8 7 7 7 7 7 8 8 7 6 5 4 4 3 2 3 2 2 2
8 11 14 15 13 11 13 15 16 16 13 12 10 8 6 6 7 8 8 7 7 8 9 9 8 7 7 7 6 6 6 6 6 6 5 5 4 4 3 2 3 3 2 2
8 9 12 15 15 13 13 14 15 15 13 13 12 6 4 6 7 7 8 7 8 8 9 9 9 8 7 7 7 6 6 6 6 6 5 5 5 5 4 3 3 3 3 3
8 8 10 12 13 13 14 14 14 12 12 11 9 4 5 7 7 6 7 8 9 8 8 9 8 8 7 7 6 7 7 6 6 6 5 5 5 5 4 4 3 3 3 3
7 7 7 11 11 15 11 10 11 10 9 8 4 4 6 7 6 5 6 7 8 8 8 8 8 7 7 7 6 6 7 7 7 6 5 5 5 5 4 4 4 4 3 3
8 7 8 9 11 12 9 10 10 8 7 5 4 5 6 7 7 5 5 7 7 8 8 7 8 8 7 7 6 7 7 7 6 6 5 5 5 5 4 4 3 3 3 3
11 8 8 9 11 12 9 8 7 7 7 4 3 4 5 7 4 3 5 7 8 8 8 8 8 8 7 6 6 7 7 6 6 5 5 5 5 5 4 4 4 3 3 3
13 12 12 12 12 8 5 4 6 8 3 3 4 4 4 3 3 6 6 7 8 9 9 8 8 7 7 7 6 6 6 6 5 5 5 5 5 5 5 4 4 3 3 3
12 11 12 11 12 8 3 4 4 2 4 4 3 4 4 7 8 7 7 6 7 9 9 8 7 7 6 6 6 6 6 5 5 6 5 5 5 4 5 4 3 3 3 3
8 6 5 4 4 1 4 4 4 4 4 4 3 3 4 6 7 7 7 6 6 7 8 7 8 7 6 6 6 6 5 5 5 6 5 5 5 4 4 4 3 3 2 2
4 2 4 3 3 1 1 3 3 3 4 4 3 3 4 5 5 6 6 5 5 6 6 7 7 7 6 5 6 6 5 5 5 5 5 5 5 4 4 2 2 2 1 1
5 4 4 3 2 1 1 1 1 2 2 2 2 2 2 4 5 5 5 5 5 5 5 5 5 6 6 5 5 5 5 5 5 5 4 5 5 5 4 4 4 3 4 2
6 4 4 3 1 1 1 0 1 1 2 1 2 2 2 3 5 5 5 4 4 4 5 6 6 5 6 5 5 5 4 4 4 4 3 3 4 4 5 6 6 10 7 8
Wind_Direction
221 232 233 234 233 243 245 217 201 152 157 170 167 153 160 177 171 164 165 164 164 162 160 157 157 151 144 141 140 142 143 136 136 157 142 142 134 128 109 116 112 105 95 79
225 228 237 247 241 238 245 233 197 163 155 194 194 176 164 175 179 173 169 169 167 165 162 160 160 159 151 146 146 146 150 150 159 153 150 170 166 108 128 98 107 118 123 152
231 231 227 239 244 240 246 244 231 189 170 204 206 189 165 181 181 173 172 171 172 171 168 166 168 169 163 159 160 165 160 156 172 168 173 166 143 26 81 114 125 130 136 150
236 237 232 234 241 241 246 240 244 226 209 216 213 208 184 182 185 179 177 176 176 170 168 168 172 172 170 165 164 156 152 153 163 175 190 180 167 163 148 139 139 147 172 168
233 230 231 233 237 242 251 255 254 251 244 246 231 233 184 174 182 191 190 187 179 171 171 171 174 172 174 170 164 157 150 154 160 173 188 190 175 178 151 131 116 152 172 179
245 236 232 235 240 245 250 251 256 259 257 246 234 232 174 182 184 193 191 190 182 175 171 170 170 166 173 170 165 160 154 158 163 172 179 174 204 210 134 127 144 203 186 197
233 235 227 228 235 232 232 234 234 240 245 245 235 230 171 168 177 186 184 182 179 177 171 169 167 167 171 170 167 158 154 162 168 174 180 170 189 190 183 222 210 222 177 172
223 222 216 217 229 229 224 232 237 239 247 242 221 217 166 152 162 163 170 174 176 175 172 171 169 169 173 172 166 160 155 162 168 175 178 172 171 192 193 192 231 212 82 118
236 229 212 209 219 232 231 232 245 254 263 267 233 177 162 153 156 157 166 171 172 171 169 169 168 170 176 174 169 168 159 159 167 172 168 166 170 184 170 154 200 183 66 108
257 261 227 202 211 228 241 239 239 243 256 264 253 202 197 171 172 165 167 169 166 168 167 167 168 167 172 171 165 160 152 154 164 168 173 169 169 172 157 148 150 118 79 58
242 250 240 214 208 222 224 236 242 251 254 252 253 241 174 171 178 169 164 158 156 163 165 163 163 163 165 166 166 159 154 156 164 166 162 152 156 161 160 161 131 125 89 88
233 245 244 229 214 228 237 237 237 241 254 266 264 231 120 158 170 169 153 141 143 153 155 152 153 153 162 164 159 154 153 155 157 155 152 155 148 150 152 150 138 143 154 165
233 248 245 233 217 216 233 236 239 242 247 254 255 213 162 151 152 143 138 135 133 144 147 142 144 148 155 153 149 151 152 153 154 160 162 159 155 153 153 157 147 132 120 115
245 241 248 243 230 215 225 235 235 237 238 242 245 206 172 158 146 135 127 133 137 142 134 130 129 134 140 141 145 148 152 155 157 159 161 156 152 147 145 135 126 123 114 104
241 241 247 259 261 249 236 236 234 234 236 243 238 215 190 165 147 139 138 136 137 137 135 135 135 135 139 141 141 142 144 143 147 144 144 142 140 131 121 117 116 112 106 107
234 256 254 254 255 254 251 244 238 231 230 236 243 230 164 138 131 133 142 149 146 141 143 142 139 139 139 139 140 137 134 136 136 139 140 136 135 128 123 129 121 110 103 92
225 241 253 252 243 246 243 244 243 234 229 234 241 202 133 127 127 143 144 139 137 146 142 140 143 140 139 140 138 140 136 133 129 130 132 133 138 140 139 142 121 112 110 105
240 240 245 252 248 242 247 243 241 240 228 236 215 133 133 130 129 133 136 134 137 139 136 132 134 134 133 132 129 129 130 129 129 131 135 133 133 132 125 125 120 116 113 107
231 231 239 244 243 242 247 239 231 229 229 225 198 151 136 122 123 124 127 123 124 130 125 125 127 126 121 123 126 127 129 131 134 137 135 132 133 131 132 131 126 121 120 113
217 226 238 242 244 237 236 250 244 219 221 210 173 147 147 144 163 135 102 106 110 111 115 116 117 118 121 119 117 123 126 127 129 130 125 122 123 127 127 117 110 110 113 117
209 213 226 239 246 248 257 240 251 231 204 157 155 149 142 138 101 112 106 100 109 110 107 110 115 117 118 118 116 119 117 116 117 116 115 114 112 116 114 111 116 123 127 128
211 214 220 232 240 243 271 239 225 89 66 85 115 127 110 97 95 101 106 101 115 119 120 121 118 116 114 117 119 118 114 112 111 113 115 114 112 120 123 120 121 126 131 137
224 222 219 230 234 43 33 43 51 71 76 64 82 101 111 108 105 106 115 117 119 127 126 128 125 121 119 117 118 119 116 119 118 115 113 112 110 107 111 122 133 145 149 155
235 233 230 207 191 190 88 65 43 52 67 59 70 94 108 114 120 119 121 124 123 132 131 130 128 126 124 121 115 118 120 123 123 123 123 121 119 117 99 96 104 102 96 112
281 263 239 214 212 224 123 92 35 51 66 70 74 88 111 121 129 127 130 132 127 129 126 125 132 134 128 117 113 119 122 127 129 129 134 137 130 119 101 77 44 62 56 51
276 272 255 241 233 262 208 107 36 63 76 69 84 95 102 116 124 128 129 131 134 133 134 133 129 132 131 129 123 119 124 133 139 148 151 151 144 135 130 118 86 49 59 68